RH
72 77 74 74 66 74 70 74 73 75 74 79 85 91 90 99 93 100 100 100 100 100 100 98 95 94 88 89 89 84 76 69 77 73 72 67 64 64 67 72 69 68 66
94 92 81 72 66 76 73 68 70 77 77 75 77 82 90 100 99 100 100 100 100 100 100 100 100 100 100 100 97 97 94 86 90 88 82 78 75 72 62 61 68 67 66
100 94 95 88 73 69 74 72 76 77 80 79 78 81 78 100 100 100 99 99 100 99 99 99 99 100 100 100 100 100 100 100 99 98 94 90 82 76 73 62 59 57 57
100 100 100 99 96 84 80 80 82 80 80 82 76 78 82 95 100 100 100 100 99 100 99 97 100 99 100 100 100 100 100 100 100 100 99 90 82 79 77 72 70 70 67
100 100 100 100 100 90 84 84 84 82 80 78 87 91 88 94 100 100 100 100 100 100 100 100 100 100 100 99 100 100 100 100 100 100 100 97 94 89 83 78 78 75 75
100 100 100 98 100 100 94 94 83 81 84 89 88 92 99 100 100 100 100 99 98 95 95 95 90 87 86 84 91 99 99 100 100 98 98 96 93 88 82 80 77 81 91
100 100 100 99 100 100 100 100 99 96 94 97 98 97 98 97 97 99 100 96 96 100 99 98 100 99 98 100 97 100 100 100 99 99 98 96 94 91 89 89 91 92 97
100 100 100 100 100 100 99 100 100 100 100 100 100 100 99 100 100 99 99 100 100 100 100 100 100 100 99 100 99 100 100 100 97 94 94 98 100 99 100 100 100 100 100
99 100 100 100 100 100 100 99 100 99 99 100 100 100 100 99 100 100 100 100 100 100 100 100 100 100 100 100 100 100 100 100 100 100 100 100 100 98 97 99 99 99 100
99 100 100 99 98 99 100 98 98 100 97 100 98 100 100 100 100 100 100 100 100 100 100 100 99 100 99 99 100 100 100 100 99 100 99 95 94 95 94 96 100 99 99
98 98 98 98 99 100 100 98 98 100 94 96 97 99 98 99 100 100 100 99 98 100 100 100 100 100 100 100 100 100 98 98 98 96 93 82 76 73 73 74 82 87 91
100 99 97 96 97 98 97 99 99 99 98 97 95 98 97 97 98 99 99 98 96 93 100 100 99 99 99 98 98 98 100 97 95 94 98 99 92 83 69 54 62 76 87
97 96 97 96 96 97 96 97 97 98 100 99 100 98 97 97 97 98 98 98 97 96 97 98 98 96 100 99 97 99 100 96 96 100 100 94 91 90 85 71 50 43 41
100 97 92 96 98 96 98 98 98 97 97 98 98 99 97 98 98 98 100 97 97 96 96 96 96 96 97 98 96 94 92 89 89 92 89 79 72 70 67 64 69 45 48
99 100 98 91 95 100 100 100 100 99 96 98 99 97 97 98 99 98 97 99 100 98 95 94 94 94 94 92 91 88 86 86 87 83 75 66 62 57 51 48 43 41 42
100 100 98 99 90 92 98 100 100 99 98 97 97 99 100 99 99 99 96 96 96 95 96 99 99 98 94 83 81 81 78 77 74 67 65 67 69 67 62 52 42 39 37
100 96 100 99 99 99 92 93 99 99 100 100 100 99 99 100 99 99 99 95 86 79 87 88 89 91 96 94 90 86 84 82 78 76 73 67 63 65 67 63 54 47 44
94 98 92 96 96 96 97 97 90 94 99 100 98 97 99 100 98 93 83 75 83 83 90 95 96 88 82 80 85 88 86 80 80 80 77 73 74 78 68 63 62 61 57
89 96 97 97 98 97 92 90 90 92 95 96 94 96 94 100 100 93 74 79 89 93 93 93 91 93 97 93 89 87 87 85 83 84 85 83 77 76 72 70 67 63 63
95 95 96 97 96 95 96 93 87 89 93 94 96 99 90 80 89 93 92 92 95 95 93 93 96 94 89 90 86 83 87 88 89 83 83 81 82 79 78 77 76 68 70
98 92 84 87 95 96 97 98 83 84 92 95 98 98 88 86 93 95 97 99 100 95 88 88 89 93 94 90 88 88 89 93 88 87 88 93 83 88 76 75 81 84 77
93 93 89 98 87 89 96 96 96 95 88 94 95 95 89 90 90 92 92 95 97 98 95 85 88 94 92 95 95 88 81 77 89 94 95 92 87 89 90 83 76 76 81
87 95 78 85 97 82 75 93 97 95 95 94 88 82 87 92 95 98 97 88 83 81 87 92 94 94 93 88 84 88 86 80 80 86 94 92 89 90 90 94 94 90 94
92 95 95 96 93 88 94 94 95 97 96 93 90 95 93 86 83 90 96 93 88 94 92 84 75 86 90 79 66 50 47 62 65 77 90 94 84 84 78 89 85 77 94
83 90 94 96 95 97 97 93 94 89 90 94 97 98 100 100 95 90 86 93 100 96 90 88 89 92 89 89 82 56 45 44 46 61 96 99 97 98 100 97 92 91 89
92 88 90 83 91 94 94 97 98 98 98 99 98 99 96 98 97 91 88 87 96 100 99 96 87 97 100 100 88 59 46 43 44 52 94 94 96 99 88 82 87 86 88
Wind_Speed
8 31 36 34 36 33 29 36 33 32 32 30 31 31 31 30 29 30 27 28 31 27 28 30 32 30 31 29 23 19 21 16 5 8 22 24 19 19 25 25 27 27 32
23 6 27 31 30 32 28 29 29 31 31 30 28 25 24 27 29 30 30 27 27 27 27 27 25 29 31 31 33 30 28 27 19 15 15 23 26 26 22 18 25 27 27
22 14 6 14 26 26 29 26 28 30 27 24 24 24 22 26 29 31 29 28 27 26 25 25 26 24 25 26 28 28 29 27 27 21 17 23 29 28 27 26 24 24 26
26 17 14 9 5 25 28 29 28 25 24 20 19 21 22 21 24 26 26 27 25 25 24 24 25 26 27 25 25 25 25 23 23 21 15 16 20 22 22 20 23 24 21
27 29 25 17 4 19 25 28 26 23 19 18 18 18 19 19 19 22 25 25 24 21 21 22 23 22 22 24 24 23 22 22 18 16 14 15 17 17 17 19 20 15 16
31 29 29 27 22 9 25 28 27 24 22 21 17 18 17 15 17 18 19 21 20 19 19 19 18 18 18 17 20 20 23 24 22 19 17 14 19 22 25 25 24 17 6
30 29 31 34 32 30 21 18 17 20 23 20 22 21 17 13 17 18 18 18 18 17 18 19 18 16 20 20 20 24 24 24 25 17 16 14 13 17 18 19 17 13 9
30 30 32 34 33 33 31 28 18 18 17 19 17 18 15 9 16 20 21 16 19 15 12 12 14 15 14 19 18 22 18 16 18 20 18 17 15 15 12 10 9 7 6
31 29 29 36 34 32 33 33 28 27 26 21 16 15 12 8 2 13 23 21 16 12 8 7 8 8 8 12 17 18 15 13 10 9 11 9 4 3 5 10 9 7 3
29 25 31 36 33 30 29 33 36 28 37 28 32 26 24 20 10 10 17 20 20 18 14 12 7 4 6 12 16 20 20 17 15 16 16 15 12 12 10 6 6 9 8
26 28 30 31 29 25 27 33 31 26 37 31 35 32 34 30 23 14 14 21 23 23 21 20 18 12 8 10 16 17 21 19 22 22 20 21 21 19 20 17 12 10 13
27 28 30 29 29 26 26 24 25 24 24 24 30 29 35 32 27 26 26 28 28 31 28 26 27 27 28 24 25 27 23 27 25 25 21 21 24 23 24 24 22 22 21
23 28 29 29 28 27 27 26 25 23 18 20 20 22 22 21 29 29 30 32 33 34 31 25 26 30 28 30 29 24 19 22 24 23 20 22 20 18 18 19 21 22 22
19 19 25 27 28 27 27 28 25 23 20 17 16 18 22 19 19 19 24 30 30 31 29 27 29 29 27 28 28 25 24 23 25 24 22 19 17 17 17 13 15 20 20
20 20 14 19 20 23 29 26 25 28 21 19 19 21 17 17 19 19 21 22 24 25 27 24 24 23 25 26 27 25 22 24 23 18 19 19 18 18 19 16 15 16 18
19 19 20 14 15 17 19 23 26 25 24 25 24 24 24 23 20 21 22 21 22 23 25 21 21 19 20 23 23 22 21 20 21 19 16 18 18 17 18 17 16 16 16
20 19 18 17 16 11 15 17 16 20 22 23 24 23 20 18 19 19 21 22 20 23 27 22 21 20 19 19 20 19 19 18 17 18 17 17 16 15 14 16 16 15 13
19 17 17 16 16 16 16 15 16 16 16 19 21 20 20 20 19 17 17 21 25 25 23 20 19 19 18 17 16 17 18 17 16 16 18 17 17 16 16 16 16 14 15
19 18 16 15 14 13 14 14 15 15 17 18 16 16 14 17 19 20 21 24 22 21 22 21 19 18 17 16 16 16 17 16 14 14 16 18 15 15 14 13 13 12 11
16 15 15 15 14 14 13 13 13 13 13 16 18 15 13 14 20 21 22 22 21 19 18 19 18 18 17 14 12 13 15 15 15 14 14 14 15 12 12 12 13 10 10
15 14 13 13 14 14 14 13 12 15 15 17 17 15 13 17 17 17 18 19 20 18 15 13 13 13 13 12 11 10 11 12 12 12 12 13 10 11 10 8 10 11 11
15 12 14 11 11 13 13 12 13 12 13 13 14 15 14 16 16 16 15 14 13 12 10 9 11 11 9 9 8 7 8 8 8 9 11 11 9 10 11 9 9 9 9
13 13 11 12 11 10 10 13 13 13 13 12 11 11 11 12 13 13 12 9 8 7 6 6 6 7 7 7 5 4 3 5 7 5 5 7 8 6 8 10 9 9 8
14 14 14 13 12 12 11 12 12 12 11 11 10 10 9 9 9 8 8 7 7 7 7 7 8 5 5 6 7 7 5 1 1 3 3 4 6 4 5 5 6 5 6
12 13 14 15 14 14 10 9 9 8 8 9 10 9 9 8 7 6 5 4 5 5 7 8 5 4 6 8 9 10 8 4 1 3 4 3 3 4 4 3 3 4 8
12 11 12 10 11 11 11 11 10 9 8 8 7 6 5 7 5 4 5 3 4 4 5 7 4 5 6 8 10 10 6 5 3 5 5 3 2 0 1 2 1 2 5
Wind_Direction
206 183 187 190 196 187 195 192 195 199 198 201 200 204 204 203 205 203 207 208 209 212 211 214 218 213 212 213 221 217 209 194 181 195 217 217 230 237 235 240 249 252 254
359 96 177 191 195 186 195 181 191 188 189 193 198 199 202 197 205 203 200 210 210 203 210 213 215 213 218 218 222 229 233 232 224 225 219 222 230 232 231 231 238 245 247
4 352 62 167 194 191 174 169 169 170 175 183 191 198 205 197 200 202 208 213 219 222 220 222 220 218 214 209 218 223 224 226 233 231 228 226 231 232 241 250 250 253 257
10 21 8 333 190 174 167 166 165 166 169 182 196 203 209 197 190 196 204 209 216 220 221 224 222 225 222 222 222 222 220 218 220 220 221 222 231 235 241 249 259 254 257
11 25 14 18 273 171 166 167 163 164 172 187 190 199 200 199 198 200 202 204 204 211 220 226 230 233 236 237 229 220 213 213 209 210 216 227 231 232 230 238 239 252 263
19 22 22 33 39 61 163 163 160 165 172 181 179 189 179 174 188 196 206 211 214 214 213 216 220 222 226 230 231 230 232 218 220 222 219 215 222 227 236 242 246 243 237
21 22 30 33 32 25 61 125 142 160 168 170 167 178 174 181 193 195 190 196 198 203 211 216 208 210 222 225 227 224 223 228 224 213 213 211 224 229 229 228 220 215 199
21 23 34 38 37 34 41 40 78 105 120 136 142 143 152 169 195 199 193 178 179 170 162 167 183 191 205 208 212 212 216 228 235 236 239 237 241 238 233 223 223 220 212
25 17 33 45 39 42 47 46 46 72 65 75 89 101 93 87 147 161 183 171 154 133 134 154 174 180 177 172 188 171 148 133 115 140 155 131 157 221 221 219 206 176 140
24 16 38 55 51 43 52 62 66 54 73 54 62 60 70 65 63 147 159 145 126 111 98 86 88 174 169 174 190 166 141 129 118 109 103 104 92 92 104 130 163 167 133
35 43 48 53 57 58 52 69 69 64 71 59 59 50 62 65 63 83 123 122 110 92 83 75 73 84 116 153 168 164 151 140 126 114 103 96 88 83 80 77 85 109 114
39 46 52 56 51 56 62 53 69 64 64 67 67 51 52 62 68 79 92 105 108 101 86 79 77 83 90 99 110 115 122 126 117 105 97 85 86 81 77 76 76 79 83
44 46 50 55 58 55 54 56 52 57 53 60 59 73 60 60 68 75 85 89 96 94 91 92 90 85 89 92 93 95 100 100 100 95 92 89 88 88 83 83 80 83 81
38 52 52 55 54 53 52 51 53 50 49 52 61 61 72 71 75 80 85 95 95 94 94 88 88 88 86 88 90 91 93 91 93 95 95 97 100 102 100 94 107 88 83
35 39 63 66 66 63 61 57 57 62 68 67 63 70 72 68 78 91 92 89 96 101 99 89 81 79 77 75 83 88 90 95 94 102 107 105 96 95 88 98 98 97 87
33 35 40 52 65 71 72 66 64 70 68 71 75 78 78 84 83 84 92 96 100 101 86 79 78 77 78 87 84 83 87 91 95 98 96 94 96 96 93 92 90 87 82
33 39 42 48 51 59 76 78 70 66 65 67 66 68 76 79 78 82 84 87 92 97 84 82 81 83 86 91 87 87 87 89 95 93 90 89 90 85 87 80 79 80 75
40 44 46 50 55 65 76 87 85 78 68 64 61 63 65 69 72 76 89 96 82 81 83 78 79 81 80 86 92 92 90 90 92 92 86 84 83 87 81 73 67 69 69
33 36 44 49 57 69 79 82 83 82 77 68 76 69 68 68 73 78 91 91 84 81 85 87 91 91 92 97 93 91 90 89 88 86 80 81 82 85 82 77 73 67 65
35 38 45 53 56 61 73 83 77 73 78 71 67 74 82 84 77 78 82 87 90 91 94 92 90 91 88 95 102 102 97 92 85 80 80 82 79 83 79 73 66 68 58
35 42 42 50 59 58 66 88 85 86 90 76 70 72 80 87 83 80 80 82 84 85 87 92 89 90 95 95 93 101 97 90 86 85 76 71 71 73 71 69 69 74 53
32 38 40 52 57 59 63 74 89 102 95 84 77 78 83 83 83 79 75 75 80 88 94 98 98 93 85 89 90 87 89 93 93 82 75 76 71 77 79 68 58 54 47
32 35 35 45 52 53 59 69 82 87 92 91 86 79 79 88 88 85 79 69 74 80 80 88 92 88 81 71 60 63 58 75 81 93 86 75 65 69 73 68 70 59 55
41 44 45 43 44 54 66 69 72 79 82 84 85 89 92 90 85 83 81 75 62 58 50 69 74 77 42 29 33 45 37 20 21 132 112 78 63 70 70 65 58 42 48
32 40 46 49 49 51 71 75 77 73 74 78 85 91 100 102 89 83 77 74 57 44 41 31 31 40 45 31 15 11 18 30 119 158 152 110 79 55 75 58 61 36 32
36 38 38 32 41 47 50 67 79 80 83 86 82 82 84 83 85 55 40 46 77 48 30 36 39 18 11 350 351 356 4 27 52 155 163 180 155 20 340 344 331 20 13